When you browse on this site, cookies collect data to enhance your experience and personalize the content and advertising you see.
Visit our Privacy Policy to learn more. By continuing to use the site, you agree to this use of cookies and data.
  • In Lithuania
  • List of Countries
  • For 7 days
  • Water Temperature
  • Satellite Maps
  • Weather Map
  • Weather Widgets
  • user-avatar
    Login

    Hourly Weather Sonka

    Today, 22 February, Friday

    Time Temperature Precipitation Wind Pressure Humidity
    00:00 -14°C° 0.1 mm 6 mps 740 mmHg 80%
    01:00 -14°C° 0.1 mm 6 mps 741 mmHg 80%
    02:00 -15°C° 0 mm 6 mps 741 mmHg 81%
    03:00 -15°C° 0.2 mm 6 mps 741 mmHg 81%
    04:00 -15°C° 0.2 mm 7 mps 742 mmHg 82%
    05:00 -15°C° 0.2 mm 7 mps 742 mmHg 82%
    06:00 -15°C° 0.1 mm 7 mps 743 mmHg 80%
    07:00 -15°C° 0.1 mm 7 mps 744 mmHg 79%
    08:00 -15°C° 0 mm 7 mps 745 mmHg 77%
    09:00 -14°C° 0 mm 7 mps 745 mmHg 75%
    10:00 -14°C° 0 mm 7 mps 746 mmHg 74%
    11:00 -13°C° 0 mm 7 mps 747 mmHg 73%
    12:00 -13°C° 0 mm 7 mps 748 mmHg 73%
    13:00 -12°C° 0 mm 7 mps 748 mmHg 73%
    14:00 -12°C° 0 mm 7 mps 749 mmHg 73%
    15:00 -11°C° 0 mm 6 mps 750 mmHg 75%
    16:00 -11°C° 0 mm 6 mps 751 mmHg 77%
    17:00 -11°C° 0 mm 5 mps 751 mmHg 78%
    18:00 -12°C° 0 mm 5 mps 752 mmHg 82%
    19:00 -12°C° 0 mm 4 mps 752 mmHg 86%
    20:00 -14°C° 0 mm 4 mps 753 mmHg 90%
    21:00 -14°C° 0 mm 4 mps 753 mmHg 90%
    22:00 -14°C° 0 mm 3 mps 754 mmHg 91%
    23:00 -15°C° 0 mm 3 mps 754 mmHg 91%

    Tomorrow, 23 February, Saturday

    Time Temperature Precipitation Wind Pressure Humidity
    00:00 -15°C° 0 mm 3 mps 755 mmHg 91%
    01:00 -15°C° 0 mm 2 mps 755 mmHg 91%
    02:00 -15°C° 0 mm 2 mps 755 mmHg 91%
    03:00 -15°C° 0 mm 2 mps 755 mmHg 91%
    04:00 -15°C° 0 mm 2 mps 755 mmHg 92%
    05:00 -15°C° 0 mm 2 mps 755 mmHg 92%
    06:00 -14°C° 0 mm 2 mps 755 mmHg 87%
    07:00 -14°C° 0 mm 3 mps 754 mmHg 81%
    08:00 -13°C° 0 mm 3 mps 754 mmHg 76%
    09:00 -10°C° 0 mm 3 mps 753 mmHg 72%
    10:00 -10°C° 0 mm 4 mps 753 mmHg 68%
    11:00 -9°C° 0 mm 4 mps 752 mmHg 64%
    12:00 -10°C° 0.4 mm 5 mps 751 mmHg 73%
    13:00 -10°C° 0.4 mm 5 mps 750 mmHg 82%
    14:00 -10°C° 0.4 mm 6 mps 750 mmHg 91%
    15:00 -10°C° 0.9 mm 5 mps 749 mmHg 91%
    16:00 -8°C° 0.9 mm 5 mps 748 mmHg 90%
    17:00 -8°C° 0.9 mm 5 mps 747 mmHg 89%
    18:00 -7°C° 0.2 mm 5 mps 747 mmHg 90%
    19:00 -6°C° 0.2 mm 5 mps 746 mmHg 91%
    20:00 -5°C° 0.2 mm 5 mps 746 mmHg 92%
    21:00 -4°C° 0.1 mm 5 mps 746 mmHg 92%
    22:00 -2°C° 0.1 mm 5 mps 746 mmHg 92%
    23:00 -1°C° 0.1 mm 5 mps 745 mmHg 91%

    Day after tomorrow, 24 February, Sunday

    Time Temperature Precipitation Wind Pressure Humidity
    00:00 -1°C° 0.1 mm 5 mps 746 mmHg 92%
    01:00 -1°C° 0.1 mm 4 mps 746 mmHg 93%
    02:00 -1°C° 0.1 mm 4 mps 746 mmHg 93%
    03:00 -1°C° 0.1 mm 4 mps 746 mmHg 94%
    04:00 0°C° 0.1 mm 3 mps 746 mmHg 94%
    05:00 0°C° 0.1 mm 3 mps 746 mmHg 95%
    06:00 0°C° 0 mm 3 mps 746 mmHg 95%
    07:00 0°C° 0 mm 3 mps 746 mmHg 95%
    08:00 0°C° 0 mm 3 mps 747 mmHg 96%
    09:00 0°C° 0 mm 3 mps 747 mmHg 96%
    10:00 0°C° 0 mm 3 mps 747 mmHg 96%
    11:00 0°C° 0 mm 3 mps 747 mmHg 97%
    12:00 0°C° 0 mm 3 mps 747 mmHg 97%
    13:00 0°C° 0 mm 3 mps 747 mmHg 97%
    14:00 0°C° 0 mm 3 mps 747 mmHg 97%
    15:00 0°C° 0 mm 3 mps 747 mmHg 97%
    16:00 0°C° 0 mm 3 mps 747 mmHg 96%
    17:00 0°C° 0 mm 3 mps 747 mmHg 96%
    18:00 +1°C° 0 mm 2 mps 746 mmHg 96%
    19:00 +1°C° 0 mm 2 mps 746 mmHg 96%
    20:00 +1°C° 0 mm 2 mps 746 mmHg 96%
    21:00 +1°C° 0.1 mm 2 mps 745 mmHg 96%
    22:00 0°C° 0.1 mm 3 mps 745 mmHg 96%
    23:00 0°C° 0.1 mm 3 mps 744 mmHg 97%

    25 February, Monday

    Time Temperature Precipitation Wind Pressure Humidity
    00:00 0°C° 0.1 mm 3 mps 744 mmHg 96%
    01:00 -1°C° 0.1 mm 4 mps 744 mmHg 96%
    02:00 -1°C° 0.1 mm 4 mps 743 mmHg 95%
    03:00 -1°C° 0.1 mm 4 mps 743 mmHg 95%
    04:00 -1°C° 0.1 mm 4 mps 743 mmHg 94%
    05:00 -1°C° 0.1 mm 4 mps 742 mmHg 94%
    06:00 -1°C° 0.1 mm 5 mps 743 mmHg 92%
    07:00 -1°C° 0.1 mm 5 mps 743 mmHg 91%
    08:00 -2°C° 0.1 mm 5 mps 743 mmHg 89%
    09:00 -2°C° 0 mm 5 mps 743 mmHg 89%
    10:00 -1°C° 0 mm 5 mps 743 mmHg 90%
    11:00 -1°C° 0 mm 5 mps 742 mmHg 90%
    12:00 -1°C° 0.1 mm 5 mps 742 mmHg 89%
    13:00 -2°C° 0.1 mm 6 mps 742 mmHg 87%
    14:00 -3°C° 0.1 mm 6 mps 741 mmHg 86%
    15:00 -3°C° 0.1 mm 6 mps 741 mmHg 86%
    16:00 -2°C° 0.1 mm 6 mps 740 mmHg 86%
    17:00 -2°C° 0.1 mm 6 mps 740 mmHg 86%
    18:00 -2°C° 0.1 mm 6 mps 740 mmHg 85%
    19:00 -2°C° 0.1 mm 6 mps 740 mmHg 85%
    20:00 -2°C° 0.1 mm 6 mps 740 mmHg 84%
    21:00 -2°C° 0.1 mm 6 mps 740 mmHg 85%
    22:00 -1°C° 0.1 mm 5 mps 740 mmHg 85%
    23:00 -2°C° 0.1 mm 5 mps 739 mmHg 86%

    26 February, Tuesday

    Time Temperature Precipitation Wind Pressure Humidity
    00:00 -2°C° 0 mm 5 mps 739 mmHg 87%
    01:00 -2°C° 0 mm 4 mps 739 mmHg 88%
    02:00 -3°C° 0 mm 4 mps 739 mmHg 90%
    03:00 -3°C° 0 mm 4 mps 739 mmHg 91%
    04:00 -2°C° 0 mm 3 mps 738 mmHg 92%
    05:00 -3°C° 0 mm 2 mps 737 mmHg 94%
    06:00 -3°C° 0 mm 2 mps 736 mmHg 94%
    07:00 -3°C° 0 mm 2 mps 736 mmHg 94%
    08:00 -3°C° 0 mm 2 mps 735 mmHg 93%
    09:00 -2°C° 0.4 mm 2 mps 734 mmHg 94%
    10:00 -2°C° 0.4 mm 2 mps 733 mmHg 94%
    11:00 -2°C° 0.4 mm 2 mps 733 mmHg 94%
    12:00 +1°C° 0.2 mm 1 mps 732 mmHg 94%
    13:00 +1°C° 0.2 mm 1 mps 732 mmHg 94%
    14:00 0°C° 0.2 mm 0 mps 732 mmHg 95%
    15:00 +1°C° 0.1 mm 1 mps 732 mmHg 95%
    16:00 +1°C° 0.1 mm 1 mps 732 mmHg 96%
    17:00 0°C° 0.1 mm 1 mps 733 mmHg 96%
    18:00 0°C° 0 mm 1 mps 733 mmHg 95%
    19:00 -2°C° 0 mm 2 mps 734 mmHg 95%
    20:00 -2°C° 0 mm 2 mps 735 mmHg 95%
    21:00 -3°C° 0 mm 2 mps 736 mmHg 94%
    22:00 -3°C° 0 mm 2 mps 736 mmHg 93%
    23:00 -3°C° 0 mm 2 mps 737 mmHg 93%

    27 February, Wednesday

    Time Temperature Precipitation Wind Pressure Humidity
    00:00 -3°C° 0 mm 2 mps 738 mmHg 93%
    01:00 -5°C° 0 mm 3 mps 738 mmHg 93%
    02:00 -5°C° 0 mm 3 mps 739 mmHg 94%
    03:00 -5°C° 0 mm 3 mps 740 mmHg 93%
    04:00 -5°C° 0 mm 3 mps 740 mmHg 93%
    05:00 -5°C° 0 mm 3 mps 741 mmHg 92%
    06:00 -5°C° 0 mm 3 mps 741 mmHg 91%
    07:00 -5°C° 0 mm 3 mps 741 mmHg 91%
    08:00 -5°C° 0 mm 3 mps 742 mmHg 90%
    09:00 -5°C° 0 mm 3 mps 742 mmHg 88%
    10:00 -5°C° 0 mm 3 mps 742 mmHg 86%
    11:00 -4°C° 0 mm 3 mps 742 mmHg 84%
    12:00 -4°C° 0 mm 3 mps 742 mmHg 84%
    13:00 -4°C° 0 mm 3 mps 741 mmHg 84%
    14:00 -2°C° 0 mm 3 mps 741 mmHg 84%
    15:00 -2°C° 0 mm 3 mps 740 mmHg 86%
    16:00 -4°C° 0 mm 3 mps 740 mmHg 88%
    17:00 -4°C° 0 mm 3 mps 739 mmHg 89%
    18:00 -4°C° 0 mm 3 mps 738 mmHg 90%
    19:00 -4°C° 0 mm 3 mps 738 mmHg 91%
    20:00 -4°C° 0 mm 4 mps 737 mmHg 92%
    21:00 -4°C° 0 mm 4 mps 735 mmHg 92%
    22:00 -3°C° 0 mm 4 mps 734 mmHg 91%
    23:00 -4°C° 0 mm 5 mps 733 mmHg 90%
    Show more